Wind_Speed
0 1 2 3 6 7 8 9 9 10 10 10 9 9 9 11 12 12 15 16 16 17 17 17 16 16 17 17 18 20 21 22 23 24 25 25 25 26 25 25 25 23 22 22 23 23 22 22 22
1 1 1 2 5 7 9 9 9 10 11 12 12 11 12 13 14 14 14 17 19 19 18 19 19 18 18 19 20 22 23 23 24 25 26 26 27 27 27 25 25 24 24 23 24 25 25 24 22
2 2 3 4 5 7 8 9 10 10 11 12 15 14 13 13 15 14 15 16 19 20 20 20 19 20 20 22 24 24 24 25 26 27 28 29 28 27 26 26 26 26 25 25 25 26 25 25 25
5 4 5 6 7 8 8 10 10 12 12 12 14 17 17 15 16 16 17 17 17 21 23 23 22 22 23 24 25 26 28 27 27 27 28 29 30 29 28 28 29 28 28 28 27 27 26 25 26
5 6 8 8 9 11 10 10 12 14 15 15 15 16 17 17 17 18 20 20 19 21 22 23 24 24 26 26 26 28 29 30 29 29 29 30 30 31 32 31 32 31 31 31 29 29 27 28 27
6 7 9 10 11 12 12 12 13 16 16 17 18 19 19 20 18 19 20 19 20 21 21 23 24 25 26 27 29 30 32 33 33 32 32 31 32 32 32 33 34 34 34 33 32 31 30 30 29
6 8 10 11 12 13 13 14 14 16 18 19 19 18 20 20 20 20 20 20 21 22 22 23 24 25 26 28 30 32 33 34 34 34 35 35 34 34 33 33 34 36 36 36 35 32 32 32 31
5 7 11 11 13 15 14 15 15 17 20 21 20 20 21 22 20 20 20 20 22 24 26 25 26 27 28 29 31 32 34 34 35 35 36 36 36 36 35 34 34 36 38 39 36 35 34 34 33
7 8 11 11 14 16 17 17 17 18 20 21 21 23 22 20 21 20 20 22 22 24 27 27 28 29 29 30 31 33 34 35 35 36 37 38 38 38 37 36 36 36 37 39 40 38 36 35 35
7 10 10 12 14 15 17 19 19 19 22 21 22 23 24 22 21 21 21 22 24 25 26 27 29 29 29 30 32 33 35 35 37 38 38 39 40 40 39 38 37 38 39 39 41 41 40 39 38
8 11 13 13 13 15 17 19 21 20 24 22 23 24 25 24 22 22 24 24 25 26 26 27 28 28 29 30 33 35 36 37 38 38 40 41 42 42 42 41 41 41 40 41 43 43 42 42 40
10 13 15 19 17 16 17 20 21 23 21 22 23 26 27 26 23 23 24 24 26 26 26 26 28 28 28 31 34 36 37 38 39 40 41 43 44 45 45 46 45 43 42 41 42 43 45 44 44
13 14 17 19 21 21 19 21 21 26 23 21 21 25 27 28 24 23 24 24 25 25 24 26 28 28 29 32 34 37 38 40 42 42 43 45 46 47 47 48 48 49 48 47 47 47 46 46 46
17 17 19 22 23 23 22 24 24 26 23 22 22 25 26 27 25 24 25 24 24 22 23 25 28 28 29 32 35 37 39 41 42 43 46 47 47 48 51 54 56 57 57 54 51 48 46 46 47
21 19 21 24 26 26 25 22 27 27 24 23 22 24 26 26 25 24 25 24 23 23 23 25 28 29 30 34 36 38 39 41 44 45 47 49 52 56 58 58 57 58 59 60 58 58 57 54 50
23 23 24 24 28 29 31 23 27 28 25 25 24 24 25 26 25 24 24 23 23 23 23 26 27 29 31 34 36 38 40 42 46 48 52 57 57 56 57 58 60 59 59 60 62 63 63 58 51
27 28 26 28 31 31 33 26 29 30 26 26 26 25 25 26 25 24 23 21 22 23 24 26 27 28 31 34 36 37 41 44 49 54 56 53 55 56 54 54 53 52 45 41 42 45 43 36 39
32 30 28 31 33 34 35 26 27 33 28 25 25 26 26 25 24 23 22 20 22 23 25 26 27 29 31 33 34 38 42 48 53 56 55 49 47 46 39 25 18 19 23 20 14 18 24 33 39
34 34 33 35 36 35 38 32 26 31 31 29 27 26 25 23 23 22 21 20 22 24 25 25 26 28 29 30 33 38 45 50 54 52 44 44 33 17 25 17 12 9 8 12 12 12 20 24 28
37 37 36 38 38 38 40 35 28 27 29 29 28 26 24 22 21 21 20 20 21 23 23 24 25 25 25 28 32 38 44 52 50 42 38 31 19 21 22 16 15 11 5 6 12 18 20 26 30
40 39 39 41 42 42 43 41 25 27 28 26 27 25 24 22 21 19 18 19 21 23 22 21 23 22 23 27 31 36 45 41 43 37 34 35 30 27 25 20 16 8 2 6 8 14 17 20 26
44 42 43 43 44 45 44 48 25 26 27 28 26 25 23 21 20 18 17 18 20 21 20 19 21 20 21 24 29 34 38 43 33 36 31 29 27 31 30 28 23 27 24 17 10 11 14 20 21
47 47 47 46 47 47 43 46 25 23 25 25 25 24 21 19 19 17 18 18 20 20 18 17 19 17 19 22 26 30 34 40 37 35 32 28 30 27 27 25 23 22 19 17 15 13 13 16 18
49 49 48 48 47 46 42 41 31 25 22 24 25 23 21 20 19 18 18 18 19 19 18 17 18 15 16 19 22 26 28 34 34 34 30 27 26 27 26 26 24 20 23 18 14 17 24 19 22
49 48 47 47 45 46 45 41 32 24 22 24 26 25 23 21 20 19 19 19 20 19 18 16 16 13 14 17 18 20 25 31 29 31 30 31 31 27 26 23 25 23 18 18 22 20 14 17 19
46 46 45 44 46 47 44 39 32 23 22 25 27 27 24 22 19 19 20 21 20 21 19 15 14 12 11 13 15 14 20 24 31 29 29 30 26 25 24 24 23 17 11 8 11 9 12 20 21
43 43 41 44 47 47 44 39 35 28 26 26 27 27 25 24 20 19 21 22 20 21 19 15 13 10 10 10 14 10 16 19 22 26 25 29 24 26 25 25 26 25 17 12 16 16 17 15 15
45 41 41 40 44 44 45 42 37 33 25 23 25 25 25 23 21 20 21 23 21 20 19 17 13 10 9 8 12 11 10 14 18 22 19 27 27 21 20 19 22 19 17 13 14 14 10 9 11
40 41 41 41 39 42 42 44 40 35 30 25 27 27 29 32 28 23 23 25 22 19 18 16 14 11 9 7 9 10 7 11 13 15 16 20 23 24 23 18 14 13 13 9 8 9 11 9 11
38 37 39 42 39 34 38 43 43 38 33 24 23 27 31 36 34 29 25 26 25 21 20 17 15 12 10 9 8 9 9 8 12 13 15 16 18 21 20 20 14 13 8 9 9 11 7 7 7
Wind_Direction
261 19 357 349 353 337 335 333 328 331 326 321 318 315 316 308 307 305 309 308 309 308 307 302 300 298 299 301 300 297 294 290 285 281 277 275 273 270 269 269 269 268 269 268 268 270 273 274 271
249 231 318 309 333 337 337 336 332 327 324 319 315 312 312 313 309 307 308 305 308 309 307 305 302 304 307 308 305 303 298 294 291 288 284 279 276 273 272 269 266 261 262 266 268 269 270 271 273
279 280 297 307 314 332 337 343 336 330 320 313 311 311 308 308 304 304 303 306 307 308 308 306 306 308 309 309 306 303 300 298 294 290 288 283 277 274 272 271 266 261 260 263 265 269 271 271 271
290 293 283 297 306 314 334 337 340 336 325 316 307 309 308 308 304 303 302 302 300 303 303 303 304 305 304 302 301 302 300 297 294 291 287 283 278 274 270 270 266 261 261 260 263 267 270 272 272
288 291 291 290 296 307 320 328 333 339 337 329 315 303 304 305 304 304 306 302 300 302 303 302 302 302 300 300 299 296 294 294 296 295 292 286 283 277 273 270 267 264 260 260 260 263 268 270 274
293 297 296 297 297 299 309 315 323 326 333 336 325 316 310 306 302 300 297 295 295 301 302 303 302 301 299 296 294 294 294 295 296 296 293 290 284 280 276 272 269 265 260 261 259 260 264 269 272
295 303 300 303 302 298 300 304 310 316 322 328 336 321 309 302 299 301 298 294 292 294 298 300 302 300 297 295 293 293 295 296 295 293 292 289 287 284 281 275 272 266 263 259 259 261 263 269 270
299 304 301 312 312 306 302 299 301 306 313 321 333 326 314 306 300 300 297 293 292 295 297 300 300 299 297 296 295 296 297 297 295 294 292 291 290 286 282 277 273 268 263 260 258 258 261 267 270
313 310 314 322 315 311 307 302 301 302 303 314 322 325 320 304 297 298 295 291 292 292 293 299 297 299 299 297 297 298 298 296 296 296 295 292 289 285 282 278 274 271 265 260 258 256 258 263 268
315 312 324 322 319 314 309 306 303 303 299 312 313 322 321 311 300 294 295 293 293 291 293 294 296 300 298 300 301 300 297 298 298 296 293 290 287 285 284 281 278 275 270 264 260 257 257 259 262
302 312 318 315 315 313 314 310 308 303 301 309 313 318 321 315 304 296 295 295 293 293 293 294 297 297 300 303 301 300 302 301 299 295 292 290 289 287 286 285 281 277 273 269 263 260 258 257 259
288 304 317 319 314 310 312 310 312 300 306 303 312 318 321 316 307 298 294 296 294 294 296 297 296 299 303 303 304 304 304 301 298 296 296 293 291 289 287 285 282 278 273 269 266 262 260 258 258
280 293 305 312 313 314 310 311 312 300 305 307 311 315 317 316 310 299 296 295 294 295 297 297 298 301 304 306 306 306 303 300 298 299 297 294 292 290 287 284 280 278 274 269 266 263 260 259 258
267 283 298 303 310 318 316 309 305 304 305 306 308 313 317 317 309 301 298 295 293 295 296 297 299 302 306 307 307 304 302 303 304 303 300 297 295 291 288 286 283 279 276 270 263 257 257 257 256
262 272 286 297 309 314 311 307 303 305 308 307 306 310 315 315 308 301 298 294 294 294 298 298 302 305 308 308 306 305 309 310 309 306 302 299 295 292 288 285 280 275 271 267 264 258 257 256 260
260 268 279 295 299 307 309 310 302 300 309 308 306 307 311 314 307 300 297 297 294 297 298 301 303 307 310 309 310 314 315 315 313 308 305 300 296 293 289 288 286 281 278 274 269 266 262 260 257
259 264 275 286 292 299 304 312 299 296 305 307 306 306 310 313 308 299 298 297 294 296 298 303 304 309 313 315 318 320 323 319 314 312 306 305 302 297 295 289 285 283 281 278 267 256 249 243 233
258 265 270 278 286 296 301 310 298 294 302 304 303 303 309 313 309 299 297 296 296 297 302 305 307 315 318 321 324 329 326 321 320 315 314 311 311 310 309 311 304 284 272 274 257 232 220 215 207
262 266 270 276 282 290 297 305 292 289 297 303 306 304 306 310 305 302 299 295 294 296 301 305 313 321 325 327 333 334 328 330 328 324 326 330 329 352 336 333 348 330 306 256 232 195 194 197 193
261 264 270 276 284 288 293 299 293 285 286 296 300 299 306 310 307 303 301 296 293 297 304 310 317 327 329 335 339 337 340 338 343 344 357 356 13 358 7 357 341 331 3 101 133 183 174 169 174
260 264 270 276 282 289 292 293 290 283 286 292 295 297 304 309 306 303 300 294 295 299 306 313 321 332 337 339 346 345 348 4 12 24 15 18 20 19 19 19 21 35 95 101 152 152 154 177 186
260 265 270 275 281 286 288 289 289 281 280 288 292 294 301 303 302 302 300 298 296 302 310 318 326 335 342 349 351 357 1 10 27 25 29 38 43 43 45 47 48 69 74 83 107 148 163 173 189
262 265 269 274 277 281 284 288 288 275 277 283 286 286 293 296 296 297 299 301 300 306 311 322 329 339 342 355 358 4 3 17 22 23 28 36 42 43 43 44 42 49 68 77 80 103 134 163 163
261 265 269 272 275 276 281 281 285 274 270 275 278 279 282 288 291 293 299 303 305 311 313 321 330 339 345 357 2 6 9 17 25 25 32 30 33 32 32 39 49 60 68 72 76 97 111 143 159
261 264 266 267 270 274 277 274 279 272 267 269 270 273 276 282 285 289 292 297 305 314 313 317 327 335 349 358 5 11 9 10 18 24 21 20 15 19 8 22 37 53 80 80 93 114 133 132 146
257 258 259 265 269 271 271 272 277 269 267 263 263 269 272 277 281 286 288 291 296 305 313 312 323 331 344 356 4 1 4 18 21 25 23 22 20 15 16 15 25 51 55 59 61 116 126 137 138
254 254 257 261 263 265 265 267 269 267 263 255 256 264 270 275 275 278 280 286 291 295 305 307 316 322 330 348 359 357 355 12 27 22 27 27 14 29 32 33 36 40 52 76 92 97 134 143 159
250 253 254 260 259 260 265 267 266 263 256 248 250 259 262 265 264 266 273 278 282 290 299 305 308 309 313 333 346 2 348 355 20 19 34 27 32 28 23 24 26 40 52 55 83 93 100 137 144
247 248 250 252 256 257 262 265 266 266 261 251 249 256 262 267 266 264 264 270 274 283 294 298 297 297 297 308 330 352 343 337 343 356 11 21 20 24 21 28 34 41 35 47 72 56 77 112 140
246 246 248 247 253 258 257 257 262 264 268 265 244 248 254 261 264 264 260 267 273 276 286 291 288 289 280 289 299 328 345 327 320 333 338 0 4 19 18 10 19 36 44 54 73 104 81 92 125
Height
5845 5845 5845 5844 5846 5843 5841 5841 5839 5839 5838 5837 5836 5836 5836 5835 5834 5835 5832 5831 5829 5827 5826 5824 5822 5820 5819 5818 5817 5815 5814 5813 5811 5810 5808 5807 5806 5805 5805 5804 5803 5803 5801 5801 5800 5800 5799 5798 5797
5844 5844 5844 5843 5844 5842 5842 5840 5838 5837 5835 5834 5833 5833 5833 5831 5830 5830 5829 5829 5827 5825 5823 5821 5819 5818 5816 5814 5812 5811 5809 5808 5807 5806 5805 5803 5802 5800 5800 5799 5798 5797 5796 5795 5795 5794 5794 5793 5793
5843 5843 5843 5842 5842 5841 5840 5839 5837 5836 5835 5833 5831 5830 5829 5828 5827 5827 5826 5825 5824 5822 5820 5818 5816 5814 5812 5811 5809 5806 5804 5802 5801 5800 5799 5798 5797 5796 5794 5794 5793 5792 5791 5790 5789 5789 5788 5788 5788
5842 5842 5842 5841 5840 5840 5838 5837 5835 5834 5833 5832 5829 5828 5827 5826 5825 5823 5822 5821 5819 5817 5816 5814 5813 5811 5808 5806 5804 5801 5799 5797 5795 5794 5793 5792 5791 5789 5788 5787 5786 5786 5786 5784 5783 5783 5783 5783 5782
5840 5840 5839 5839 5839 5838 5837 5835 5833 5832 5831 5829 5827 5826 5824 5823 5822 5821 5820 5819 5817 5815 5812 5810 5809 5806 5804 5802 5799 5797 5794 5792 5790 5788 5787 5785 5784 5783 5782 5780 5780 5779 5778 5778 5777 5777 5776 5776 5776
5838 5837 5837 5837 5837 5836 5834 5833 5831 5830 5829 5827 5825 5823 5822 5819 5818 5817 5815 5814 5813 5811 5809 5806 5804 5802 5799 5797 5794 5791 5789 5786 5784 5783 5781 5779 5777 5776 5774 5773 5772 5771 5771 5770 5770 5770 5769 5769 5769
5836 5835 5835 5834 5834 5833 5832 5830 5830 5828 5826 5825 5824 5820 5819 5816 5815 5813 5812 5810 5808 5806 5804 5801 5800 5797 5795 5792 5789 5786 5784 5781 5779 5776 5774 5772 5770 5768 5767 5765 5763 5762 5762 5761 5761 5762 5762 5762 5761
5833 5833 5832 5832 5832 5831 5830 5828 5827 5825 5823 5822 5820 5818 5815 5813 5811 5810 5808 5806 5804 5802 5800 5798 5796 5792 5790 5787 5785 5782 5778 5775 5772 5770 5767 5764 5762 5760 5758 5756 5755 5753 5752 5753 5753 5753 5754 5754 5754
5832 5831 5830 5830 5829 5829 5827 5826 5824 5823 5820 5819 5817 5814 5812 5809 5807 5806 5804 5801 5799 5797 5795 5793 5791 5788 5786 5783 5780 5776 5772 5769 5766 5763 5760 5756 5753 5750 5748 5746 5745 5743 5743 5743 5743 5743 5744 5744 5745
5829 5828 5828 5828 5827 5826 5825 5823 5822 5821 5817 5817 5815 5813 5809 5806 5803 5802 5799 5797 5795 5793 5790 5789 5787 5784 5781 5778 5775 5771 5767 5763 5760 5756 5752 5748 5744 5741 5738 5735 5734 5732 5732 5732 5732 5733 5734 5734 5735
5826 5826 5825 5824 5824 5822 5821 5820 5819 5817 5813 5813 5811 5809 5806 5803 5800 5798 5795 5793 5790 5787 5786 5784 5781 5778 5776 5773 5770 5765 5761 5757 5752 5747 5743 5739 5735 5731 5727 5724 5722 5721 5720 5719 5720 5721 5722 5723 5725
5823 5822 5822 5822 5820 5820 5817 5816 5815 5812 5812 5809 5807 5805 5802 5799 5796 5794 5791 5788 5786 5783 5782 5779 5776 5774 5772 5768 5764 5759 5754 5749 5743 5739 5735 5730 5725 5720 5716 5712 5709 5707 5706 5706 5706 5707 5709 5711 5713
5819 5818 5817 5816 5816 5815 5815 5812 5812 5807 5808 5806 5804 5802 5799 5796 5793 5790 5787 5785 5782 5780 5777 5775 5773 5770 5766 5762 5757 5752 5747 5741 5736 5731 5726 5720 5714 5709 5703 5698 5695 5693 5691 5691 5692 5693 5695 5697 5700
5814 5815 5813 5812 5811 5812 5811 5808 5806 5805 5804 5802 5800 5798 5795 5792 5789 5786 5784 5781 5778 5775 5773 5770 5768 5764 5760 5756 5751 5745 5739 5734 5729 5722 5715 5708 5702 5696 5689 5684 5680 5676 5673 5673 5674 5675 5678 5681 5685
5809 5810 5810 5808 5807 5807 5806 5806 5802 5802 5801 5799 5796 5794 5791 5788 5785 5782 5780 5777 5774 5771 5769 5766 5763 5760 5755 5750 5745 5739 5733 5727 5720 5712 5704 5696 5688 5680 5672 5665 5659 5655 5654 5652 5653 5655 5658 5664 5670
5804 5806 5804 5804 5802 5802 5802 5803 5797 5795 5797 5794 5792 5789 5787 5784 5781 5778 5775 5774 5771 5768 5764 5761 5758 5755 5751 5746 5740 5734 5727 5719 5711 5701 5691 5681 5670 5660 5651 5645 5638 5634 5631 5629 5629 5631 5637 5645 5651
5798 5800 5800 5799 5798 5797 5796 5799 5794 5790 5792 5790 5787 5784 5781 5778 5776 5774 5771 5769 5767 5764 5760 5757 5754 5751 5746 5742 5736 5729 5721 5712 5701 5690 5676 5664 5652 5641 5632 5624 5617 5613 5610 5608 5606 5610 5616 5626 5634
5792 5794 5794 5793 5794 5792 5790 5794 5790 5784 5786 5787 5784 5781 5777 5774 5771 5769 5767 5765 5763 5760 5757 5754 5751 5747 5742 5738 5731 5725 5715 5704 5692 5676 5662 5648 5636 5626 5616 5608 5603 5601 5600 5599 5598 5602 5606 5614 5623
5786 5788 5788 5787 5786 5786 5785 5788 5786 5781 5779 5779 5778 5776 5773 5770 5767 5764 5763 5762 5759 5756 5753 5749 5747 5743 5739 5734 5728 5720 5710 5698 5683 5665 5650 5637 5627 5620 5614 5607 5603 5598 5595 5594 5595 5598 5604 5611 5621
5779 5780 5782 5782 5781 5780 5779 5781 5781 5779 5777 5776 5774 5771 5768 5766 5763 5761 5759 5757 5755 5752 5749 5747 5744 5739 5735 5730 5724 5716 5705 5692 5674 5658 5646 5632 5627 5622 5616 5610 5606 5602 5599 5597 5596 5600 5605 5610 5617
5771 5773 5774 5775 5775 5774 5772 5773 5776 5774 5772 5771 5769 5766 5764 5762 5759 5757 5755 5753 5751 5749 5746 5744 5741 5737 5733 5727 5721 5712 5704 5689 5674 5661 5649 5641 5633 5625 5619 5613 5607 5602 5601 5602 5603 5604 5609 5613 5619
5763 5765 5766 5767 5767 5767 5767 5764 5772 5769 5767 5766 5764 5761 5760 5759 5756 5754 5752 5750 5747 5745 5743 5741 5738 5734 5730 5725 5718 5711 5703 5690 5677 5667 5657 5648 5640 5632 5626 5620 5615 5611 5608 5608 5608 5610 5614 5618 5622
5755 5756 5758 5759 5758 5759 5759 5758 5765 5765 5762 5761 5759 5757 5756 5755 5753 5750 5748 5747 5744 5742 5740 5738 5735 5731 5728 5723 5717 5710 5702 5693 5682 5673 5664 5656 5647 5639 5634 5627 5622 5618 5615 5615 5615 5616 5619 5622 5625
5745 5747 5750 5750 5750 5751 5752 5752 5756 5757 5757 5755 5753 5752 5751 5750 5749 5747 5745 5744 5741 5740 5737 5735 5732 5729 5726 5721 5716 5710 5703 5695 5687 5677 5671 5663 5655 5649 5642 5637 5632 5627 5624 5623 5622 5623 5625 5627 5632
5735 5737 5740 5741 5742 5744 5743 5744 5748 5748 5750 5749 5747 5746 5746 5745 5744 5743 5741 5741 5739 5736 5734 5732 5728 5726 5724 5720 5715 5710 5703 5697 5689 5681 5675 5670 5662 5656 5650 5644 5640 5637 5633 5631 5631 5632 5633 5635 5638
5724 5727 5730 5731 5734 5735 5735 5735 5737 5740 5742 5742 5741 5740 5741 5740 5740 5739 5737 5736 5736 5733 5730 5729 5726 5724 5722 5718 5714 5710 5704 5698 5693 5685 5679 5674 5668 5661 5655 5650 5646 5644 5641 5638 5637 5638 5639 5640 5643
5715 5717 5721 5722 5723 5723 5726 5728 5729 5732 5733 5734 5734 5734 5734 5735 5735 5734 5732 5731 5731 5729 5727 5725 5722 5721 5720 5716 5713 5709 5705 5700 5694 5688 5682 5677 5671 5666 5660 5655 5651 5649 5646 5644 5644 5645 5646 5646 5649
5705 5709 5710 5713 5715 5714 5716 5718 5719 5720 5725 5727 5727 5728 5728 5728 5729 5729 5728 5726 5726 5725 5724 5722 5720 5718 5717 5714 5711 5708 5705 5701 5696 5691 5684 5679 5675 5669 5665 5661 5658 5655 5653 5651 5651 5651 5652 5652 5652
5694 5696 5700 5704 5706 5706 5709 5708 5708 5710 5715 5719 5721 5722 5723 5721 5721 5722 5722 5720 5720 5720 5719 5717 5716 5715 5714 5712 5709 5707 5704 5701 5697 5693 5688 5683 5679 5675 5669 5665 5662 5660 5657 5655 5655 5654 5654 5655 5655
5682 5686 5690 5693 5698 5698 5699 5700 5699 5700 5704 5708 5711 5714 5714 5714 5715 5715 5716 5716 5716 5715 5715 5714 5713 5712 5711 5709 5707 5705 5703 5700 5697 5694 5690 5687 5682 5678 5674 5668 5664 5663 5661 5659 5657 5660 5658 5658 5657